NOAA NWS Hourly Roundups by Site

Regional Weather Roundup for Omaha, NE

To Select Another Site Choose from List

Select Site:  

707
ASUS43 KOAX 171310
RWRNE

WEATHER ROUNDUP FOR NEBRASKA
NATIONAL WEATHER SERVICE OMAHA NE
800 AM CDT FRI AUG 17 2018

NOTES: SATELLITE DATA IS BEING USED TO AUGMENT CLOUD COVER ABOVE
       12000 FEET.
       "FAIR" INDICATES FEW OR NO CLOUDS BELOW 12,000 FEET WITH NO
       SIGNIFICANT WEATHER AND/OR OBSTRUCTIONS TO VISIBILITY.


NEZ001>004-019>022-054>056-171400-
NEBRASKA PANHANDLE

CITY           SKY/WX    TMP DP  RH WIND       PRES   REMARKS
SCOTTSBLUFF    CLEAR     58  55  90 CALM      30.23R
ALLIANCE       CLEAR     49  49 100 CALM      30.23R
CHADRON        CLEAR     51  50  96 MISG      30.20R
GORDON         FAIR      52  49  91 CALM      30.22R FOG
KIMBALL        CLEAR     55  52  90 CALM      30.28R
SIDNEY         CLEAR     56  53  90 NW7       30.25R
$$

NEZ057>060-069>072-079>082-171400-
SOUTHWEST NEBRASKA

CITY           SKY/WX    TMP DP  RH WIND       PRES   REMARKS
NORTH PLATTE   SUNNY     60  58  92 CALM      30.18R FOG
IMPERIAL       SUNNY     60  56  86 NW3       30.20R
LEXINGTON      SUNNY     62  61  96 CALM      30.17R FOG
MCCOOK         SUNNY     59  58  96 W3        30.18R FOG
OGALLALA       SUNNY     56  56  98 W5        30.20R FOG
$$

NEZ005>010-023>029-035>040-094-171400-
NORTH CENTRAL NEBRASKA

CITY           SKY/WX    TMP DP  RH WIND       PRES   REMARKS
VALENTINE      SUNNY     60  59  96 CALM      30.18R FOG
AINSWORTH      SUNNY     60  60 100 CALM      30.17S
BROKEN BOW     PTSUNNY   61  61 100 CALM      30.16R FOG
O`NEILL        MOSUNNY   64  63  97 CALM      30.15R FOG
THEDFORD       SUNNY     55  54  97 CALM      30.20S FOG
$$

NEZ041-046>049-061>064-073>077-083>087-171400-
SOUTH CENTRAL NEBRASKA

CITY           SKY/WX    TMP DP  RH WIND       PRES   REMARKS
GRAND ISLAND   SUNNY     65  63  93 W5        30.15R FOG
AURORA         SUNNY     63  63 100 CALM      30.13R
HASTINGS       SUNNY     64  63  96 CALM      30.16R FOG
HEBRON         SUNNY     65  64  94 CALM      30.11S FOG
HOLDREGE       SUNNY     63  63 100 CALM      30.16R FOG
KEARNEY        SUNNY     65  63  93 NW5       30.16R
YORK           SUNNY     64  63  94 NW3       30.13R
$$

NEZ011>018-030>034-042>045-171400-
NORTHEAST NEBRASKA

CITY           SKY/WX    TMP DP  RH WIND       PRES   REMARKS
NORFOLK        SUNNY     65  63  93 CALM      30.12R
ALBION         SUNNY     63  63  99 NW5       30.14R FOG
BLAIR          SUNNY     67  65  94 NW3       30.10R
COLUMBUS       SUNNY     65  63  93 N5        30.13R
FREMONT        SUNNY     65  65  97 W3        30.11S
TEKAMAH        SUNNY     66  65  96 NE3       30.10R
WAYNE          SUNNY     64  63  96 CALM      30.12R
$$

NEZ050>053-065>068-078-088>093-171400-
SOUTHEAST NEBRASKA

CITY           SKY/WX    TMP DP  RH WIND       PRES   REMARKS
LINCOLN        SUNNY     66  63  90 N9        30.10R
OMAHA EPPLEY   MOSUNNY   67  64  90 N6        30.08S
BEATRICE       SUNNY     67  65  93 N3        30.10R
FALLS CITY     SUNNY     67  65  93 NW6       30.06R
NEBRASKA CITY  SUNNY     67  67 100 NW7       30.08R
PLATTSMOUTH    SUNNY     66  66  99 NW6       30.08R FOG
$$

NEZ044-045-051>053-067-171400-
OMAHA AREA

CITY           SKY/WX    TMP DP  RH WIND       PRES   REMARKS
OMAHA EPPLEY   MOSUNNY   67  64  90 N6        30.08S
BLAIR          SUNNY     67  65  94 NW3       30.10R
FREMONT        SUNNY     65  65  97 W3        30.11S
MILLARD        SUNNY     68  65  90 NW7       30.09S
OFFUTT AFB     SUNNY     68  66  92 NW5       30.07S
PLATTSMOUTH    SUNNY     66  66  99 NW6       30.08R FOG
WAHOO          FAIR      65  65  99 N3        30.11R
$$



 

View Past Reports for Omaha, NE.

Products Courtesy of NOAA-NWS
NWS Information Parsing Script by Ken True at Saratoga Weather - Script by SE Lincoln Weather.